COSMOS 252 DEB, 3569

Orbit data source: Space-Track

COSMOS 252 DEB, 3569 is space debris in LEO originally from a launch on Fri, 01 Nov 1968 UTC launched from the Tyuratam Missile And Space Complex (TTMTR). Debris objects in space refer to the collection of defunct objects orbiting the Earth. Examples of debris include non-operational satellites, rocket bodies, and fragments generated from explosions, collisions, or faulty payload assembly.

Loading next visibility...
Identifier
3569, 1968-097V
Orbit
LEO
Country
Flag of CISCIS
Related business
Manufacturer
Unknown
Mission
Spacecraft
Bus & Motor
Unknown
Mass
Unknown
Launch date (UTC)
1968-11-01 (57 years ago)
Launch vehicle
Unknown
Launch site
Tyuratam Missile And Space Complex (TTMTR)
Object type
Payload
Rocket body
Debris
Shape & HBR
Unknown shape, 0.1 m
Radar Cross Section
Small (<0.1 m²)

Expand to show TLE details & history
Last TLE update: 12 hours ago

TLE from 12 hours ago
0 COSMOS 252 DEB
1 03569U 68097V   25308.35480724  .00003793  00000-0  71619-3 0  9993
2 03569  62.2898 315.3487 0574563  81.6976 284.8765 13.94546079787468
Epoch: 2025-11-04T08:30Z
TLE epoch observation values (Epoch: 2025-11-04T08:30:55.345Z)
Latitude
0.00004°
Longitude
143.77509°
Altitude
829.842 km
Speed
7.482 km/s
True Right ascension
21h 01m 23s
True Declination
0° 00' 00"
Sunlit
Object was in daylight at epoch
Visualization orbit readout
Latitude
Unknown
Longitude
Unknown
Altitude
Unknown
Speed
Unknown
Apparent Right ascension
Unknown
Apparent Declination
Unknown
Sunlit
N/A
Visualization observer readout
Local Sidereal Time
16:56:19
Azimuth
Unknown
Elevation
Unknown
Doppler factor
Unknown
Orbital elements
Apogee altitude
1,330.527 km
Perigee altitude
492.835 km
Semi-major axis
7,289.818 km
Eccentricity
0.05746
Inclination
62.2898°
RAAN
315.3487°
Arg. of periapsis
81.6976°
True anomaly
278.40754°
Mean anomaly
284.8765°
Eccentric anomaly
281.65234°
Mean motion
3.48713 °/min
Orbital period
103.24 mins
BSTAR
0.00071619
Loading maneuver chart data...
Computing Atmospheric mass density...
Loading historical data...
Loading historical data...
Loading historical data...
Loading historical data...
Loading historical data...
Loading historical data...
Loading historical data...

Documentation

Showing up to 5 results
|